JES3230 SABE-SANT

Flight info

Callsign JES3230
Flight time 1h 35m
Altitude 36000
Route BIVA4B BIVAM UW8 ERE UT680 ANGEN ANGE1N
Aircraft A320/M-SDE3FGHIRWY/LB1

Departure

Time 2026-05-04 22:47
Airport Aeroparque Jorge Newbery (SABE)

Arrival

Time 2026-05-05 00:23
Airport Teniente Benjamín Matienzo International Airport (SANT)
Time Latitude Longitude Altitude Speed Heading
2026-05-04 22:25 -34.55553 -58.41678 26 ft 0 kts 34°
2026-05-04 22:39 -34.55554 -58.41680 25 ft 2 kts 34°
2026-05-04 22:40 -34.55576 -58.41697 25 ft 4 kts 34°
2026-05-04 22:40 -34.55598 -58.41716 26 ft 4 kts 32°
2026-05-04 22:40 -34.55622 -58.41732 26 ft 4 kts 19°
2026-05-04 22:40 -34.55644 -58.41735 30 ft 4 kts 318°
2026-05-04 22:41 -34.55658 -58.41713 30 ft 3 kts 304°
2026-05-04 22:41 -34.55660 -58.41708 30 ft 0 kts 304°
2026-05-04 22:43 -34.55651 -58.41725 28 ft 6 kts 304°
2026-05-04 22:43 -34.55626 -58.41771 28 ft 8 kts 302°
2026-05-04 22:43 -34.55614 -58.41834 27 ft 9 kts 242°
2026-05-04 22:44 -34.55655 -58.41891 27 ft 9 kts 263°
2026-05-04 22:44 -34.55619 -58.41964 26 ft 11 kts 305°
2026-05-04 22:44 -34.55573 -58.42050 28 ft 13 kts 303°
2026-05-04 22:44 -34.55512 -58.42145 28 ft 15 kts 307°
2026-05-04 22:45 -34.55445 -58.42252 28 ft 15 kts 307°
2026-05-04 22:45 -34.55373 -58.42372 28 ft 0 kts 290°
2026-05-04 22:46 -34.55370 -58.42384 26 ft 5 kts 286°
2026-05-04 22:46 -34.55358 -58.42471 28 ft 13 kts 278°
2026-05-04 22:46 -34.55405 -58.42506 30 ft 5 kts 130°
2026-05-04 22:46 -34.55443 -58.42442 28 ft 20 kts 125°
2026-05-04 22:47 -34.55668 -58.42036 27 ft 93 kts 124°
2026-05-04 22:47 -34.56141 -58.41192 27 ft 146 kts 124°
2026-05-04 22:47 -34.56784 -58.40103 357 ft 164 kts 125°
2026-05-04 22:47 -34.57481 -58.38954 897 ft 174 kts 125°
2026-05-04 22:48 -34.58123 -58.37666 1386 ft 184 kts 107°
2026-05-04 22:48 -34.58344 -58.36072 1693 ft 202 kts 87°
2026-05-04 22:48 -34.58182 -58.34304 1994 ft 219 kts 72°
2026-05-04 22:48 -34.57583 -58.32550 2384 ft 236 kts 56°
2026-05-04 22:49 -34.56469 -58.30987 2800 ft 254 kts 34°
2026-05-04 22:49 -34.54958 -58.29844 3546 ft 260 kts 27°
2026-05-04 22:49 -34.53378 -58.28695 4334 ft 268 kts 27°
2026-05-04 22:49 -34.51683 -58.27766 5143 ft 269 kts
2026-05-04 22:50 -34.49832 -58.27730 5926 ft 267 kts 344°
2026-05-04 22:50 -34.48152 -58.28624 6706 ft 265 kts 320°
2026-05-04 22:50 -34.46833 -58.30192 7476 ft 267 kts 310°
2026-05-04 22:50 -34.45579 -58.31840 8259 ft 271 kts 309°
2026-05-04 22:51 -34.44296 -58.33531 9036 ft 274 kts 309°
2026-05-04 22:51 -34.42992 -58.35244 9794 ft 279 kts 309°
2026-05-04 22:51 -34.41656 -58.36993 10298 ft 291 kts 308°
2026-05-04 22:51 -34.40223 -58.38872 10476 ft 314 kts 309°
2026-05-04 22:52 -34.38696 -58.40867 10857 ft 328 kts 309°
2026-05-04 22:52 -34.37129 -58.42903 11467 ft 332 kts 309°
2026-05-04 22:52 -34.35563 -58.44932 12141 ft 335 kts 308°
2026-05-04 22:52 -34.33961 -58.47003 12827 ft 338 kts 308°
2026-05-04 22:53 -34.32350 -58.49088 13515 ft 341 kts 307°
2026-05-04 22:53 -34.30724 -58.51194 14123 ft 343 kts 307°
2026-05-04 22:53 -34.29091 -58.53312 14715 ft 345 kts 307°
2026-05-04 22:53 -34.27449 -58.55445 15308 ft 347 kts 307°
2026-05-04 22:54 -34.25797 -58.57590 15894 ft 350 kts 307°
2026-05-04 22:54 -34.24130 -58.59747 16477 ft 352 kts 307°
2026-05-04 22:54 -34.22452 -58.61915 17063 ft 354 kts 307°
2026-05-04 22:54 -34.20759 -58.64102 17623 ft 357 kts 307°
2026-05-04 22:55 -34.19057 -58.66299 18194 ft 360 kts 307°
2026-05-04 22:55 -34.17342 -58.68516 18693 ft 362 kts 307°
2026-05-04 22:55 -34.15611 -58.70752 19218 ft 364 kts 307°
2026-05-04 22:55 -34.13874 -58.72992 19733 ft 366 kts 307°
2026-05-04 22:56 -34.12129 -58.75243 20251 ft 368 kts 307°
2026-05-04 22:56 -34.10375 -58.77508 20746 ft 370 kts 307°
2026-05-04 22:56 -34.08606 -58.79784 21237 ft 373 kts 307°
2026-05-04 22:56 -34.06830 -58.82069 21724 ft 375 kts 307°
2026-05-04 22:57 -34.05044 -58.84367 22200 ft 377 kts 307°
2026-05-04 22:57 -34.03249 -58.86676 22676 ft 379 kts 307°
2026-05-04 22:57 -34.01441 -58.89000 23139 ft 381 kts 307°
2026-05-04 22:57 -33.99626 -58.91329 23580 ft 383 kts 307°
2026-05-04 22:58 -33.97800 -58.93623 23956 ft 387 kts 310°
2026-05-04 22:58 -33.95647 -58.95642 24313 ft 398 kts 321°
2026-05-04 22:58 -33.93272 -58.97385 24681 ft 401 kts 322°
2026-05-04 22:58 -33.90876 -58.99134 25054 ft 403 kts 322°
2026-05-04 22:59 -33.88470 -59.00887 25424 ft 405 kts 322°
2026-05-04 22:59 -33.86053 -59.02646 25789 ft 407 kts 322°
2026-05-04 22:59 -33.83617 -59.04417 26166 ft 409 kts 322°
2026-05-04 22:59 -33.81180 -59.06192 26526 ft 411 kts 322°
2026-05-04 23:00 -33.78732 -59.07981 26858 ft 412 kts 322°
2026-05-04 23:00 -33.76275 -59.09776 27196 ft 415 kts 322°
2026-05-04 23:00 -33.73798 -59.11585 27538 ft 417 kts 322°
2026-05-04 23:00 -33.71309 -59.13395 27888 ft 420 kts 322°
2026-05-04 23:01 -33.68799 -59.15214 28241 ft 422 kts 322°
2026-05-04 23:01 -33.66280 -59.17039 28592 ft 424 kts 322°
2026-05-04 23:01 -33.63748 -59.18875 28937 ft 426 kts 322°
2026-05-04 23:01 -33.61200 -59.20721 29277 ft 428 kts 322°
2026-05-04 23:02 -33.58642 -59.22577 29593 ft 431 kts 322°
2026-05-04 23:02 -33.56074 -59.24437 29977 ft 431 kts 322°
2026-05-04 23:02 -33.53505 -59.26292 30384 ft 430 kts 322°
2026-05-04 23:02 -33.50982 -59.28115 30788 ft 429 kts 322°
2026-05-04 23:03 -33.48428 -59.29959 31203 ft 428 kts 322°
2026-05-04 23:03 -33.45881 -59.31797 31615 ft 427 kts 322°
2026-05-04 23:03 -33.43342 -59.33626 32041 ft 425 kts 322°
2026-05-04 23:03 -33.40814 -59.35449 32458 ft 423 kts 322°
2026-05-04 23:04 -33.38294 -59.37265 32883 ft 422 kts 322°
2026-05-04 23:04 -33.35781 -59.39076 33310 ft 421 kts 321°
2026-05-04 23:04 -33.33275 -59.40878 33737 ft 420 kts 321°
2026-05-04 23:04 -33.30778 -59.42674 34132 ft 418 kts 321°
2026-05-04 23:05 -33.28288 -59.44463 34484 ft 417 kts 321°
2026-05-04 23:05 -33.25798 -59.46252 34825 ft 416 kts 321°
2026-05-04 23:05 -33.23316 -59.48033 35152 ft 415 kts 321°
2026-05-04 23:05 -33.20841 -59.49808 35446 ft 414 kts 321°
2026-05-04 23:06 -33.18373 -59.51580 35744 ft 414 kts 321°
2026-05-04 23:06 -33.15903 -59.53358 35889 ft 415 kts 320°
2026-05-04 23:06 -33.10897 -59.56955 35914 ft 422 kts 321°
2026-05-04 23:07 -33.05875 -59.60536 35915 ft 423 kts 321°
2026-05-04 23:07 -33.00791 -59.64147 35903 ft 422 kts 321°
2026-05-04 23:08 -32.95776 -59.67730 35912 ft 422 kts 321°
2026-05-04 23:08 -32.90736 -59.71321 35914 ft 422 kts 321°
2026-05-04 23:09 -32.85686 -59.74904 35925 ft 423 kts 321°
2026-05-04 23:09 -32.80627 -59.78490 35901 ft 423 kts 321°
2026-05-04 23:10 -32.76432 -59.81466 35906 ft 423 kts 321°
2026-05-04 23:10 -32.71379 -59.85049 35911 ft 423 kts 321°
2026-05-04 23:11 -32.66322 -59.88627 35917 ft 423 kts 321°
2026-05-04 23:11 -32.61264 -59.92195 35922 ft 423 kts 321°
2026-05-04 23:12 -32.56244 -59.95737 35928 ft 423 kts 321°
2026-05-04 23:12 -32.51192 -59.99300 35928 ft 422 kts 321°
2026-05-04 23:13 -32.46142 -60.02861 35927 ft 422 kts 321°
2026-05-04 23:13 -32.41094 -60.06421 35910 ft 422 kts 321°
2026-05-04 23:14 -32.36042 -60.09973 35913 ft 422 kts 321°
2026-05-04 23:14 -32.30988 -60.13515 35914 ft 422 kts 321°
2026-05-04 23:15 -32.25936 -60.17053 35913 ft 422 kts 321°
2026-05-04 23:15 -32.20884 -60.20590 35903 ft 422 kts 321°
2026-05-04 23:16 -32.15832 -60.24121 35906 ft 421 kts 321°
2026-05-04 23:16 -32.10783 -60.27642 35910 ft 421 kts 321°
2026-05-04 23:17 -32.05734 -60.31160 35914 ft 421 kts 321°
2026-05-04 23:17 -32.00687 -60.34676 35891 ft 421 kts 321°
2026-05-04 23:18 -31.95659 -60.38175 35900 ft 422 kts 322°
2026-05-04 23:18 -31.90608 -60.41684 35911 ft 422 kts 321°
2026-05-04 23:19 -31.85550 -60.45201 35921 ft 422 kts 322°
2026-05-04 23:19 -31.80484 -60.48705 35914 ft 422 kts 321°
2026-05-04 23:20 -31.75536 -60.52364 35924 ft 419 kts 319°
2026-05-04 23:20 -31.70683 -60.56158 35929 ft 419 kts 319°
2026-05-04 23:21 -31.65815 -60.59931 35929 ft 419 kts 319°
2026-05-04 23:21 -31.60914 -60.63656 35903 ft 420 kts 319°
2026-05-04 23:22 -31.56003 -60.67365 35911 ft 420 kts 319°
2026-05-04 23:22 -31.51128 -60.71056 35916 ft 420 kts 319°
2026-05-04 23:23 -31.46222 -60.74780 35917 ft 420 kts 319°
2026-05-04 23:23 -31.41326 -60.78498 35903 ft 419 kts 319°
2026-05-04 23:24 -31.36428 -60.82199 35910 ft 419 kts 319°
2026-05-04 23:24 -31.31525 -60.85891 35914 ft 419 kts 319°
2026-05-04 23:25 -31.26622 -60.89582 35913 ft 419 kts 319°
2026-05-04 23:25 -31.21732 -60.93266 35914 ft 418 kts 319°
2026-05-04 23:26 -31.16833 -60.96954 35899 ft 418 kts 319°
2026-05-04 23:26 -31.11942 -61.00628 35905 ft 418 kts 319°
2026-05-04 23:27 -31.07073 -61.04279 35909 ft 418 kts 319°
2026-05-04 23:27 -31.02175 -61.07949 35913 ft 418 kts 319°
2026-05-04 23:28 -30.97278 -61.11610 35906 ft 418 kts 319°
2026-05-04 23:28 -30.92379 -61.15262 35912 ft 418 kts 320°
2026-05-04 23:29 -30.87480 -61.18906 35914 ft 417 kts 320°
2026-05-04 23:29 -30.82586 -61.22539 35910 ft 417 kts 320°
2026-05-04 23:30 -30.77687 -61.26176 35890 ft 417 kts 319°
2026-05-04 23:30 -30.72799 -61.29816 35895 ft 417 kts 319°
2026-05-04 23:31 -30.67912 -61.33452 35902 ft 417 kts 320°
2026-05-04 23:31 -30.63039 -61.37051 35908 ft 418 kts 320°
2026-05-04 23:32 -30.58137 -61.40669 35911 ft 417 kts 320°
2026-05-04 23:32 -30.53234 -61.44283 35911 ft 417 kts 320°
2026-05-04 23:33 -30.48333 -61.47894 35909 ft 417 kts 320°
2026-05-04 23:33 -30.43420 -61.51508 35910 ft 417 kts 320°
2026-05-04 23:34 -30.38554 -61.55094 35910 ft 417 kts 320°
2026-05-04 23:34 -30.33647 -61.58707 35884 ft 418 kts 320°
2026-05-04 23:35 -30.28735 -61.62312 35894 ft 418 kts 320°
2026-05-04 23:35 -30.23818 -61.65910 35898 ft 418 kts 320°
2026-05-04 23:36 -30.18903 -61.69513 35899 ft 418 kts 320°
2026-05-04 23:36 -30.13986 -61.73112 35885 ft 418 kts 320°
2026-05-04 23:37 -30.09063 -61.76710 35888 ft 419 kts 320°
2026-05-04 23:37 -30.04156 -61.80287 35894 ft 419 kts 320°
2026-05-04 23:38 -29.99219 -61.83886 35893 ft 419 kts 320°
2026-05-04 23:38 -29.94282 -61.87478 35876 ft 420 kts 320°
2026-05-04 23:39 -29.89343 -61.91070 35872 ft 420 kts 320°
2026-05-04 23:39 -29.84912 -61.95174 35888 ft 397 kts 309°
2026-05-04 23:40 -29.80926 -61.99534 35898 ft 394 kts 309°
2026-05-04 23:40 -29.76954 -62.03873 35886 ft 393 kts 309°
2026-05-04 23:41 -29.72990 -62.08213 35884 ft 393 kts 309°
2026-05-04 23:41 -29.69017 -62.12553 35888 ft 394 kts 309°
2026-05-04 23:42 -29.65033 -62.16884 35889 ft 395 kts 309°
2026-05-04 23:42 -29.61040 -62.21229 35892 ft 395 kts 309°
2026-05-04 23:43 -29.57072 -62.25542 35893 ft 395 kts 309°
2026-05-04 23:43 -29.53079 -62.29887 35875 ft 395 kts 309°
2026-05-04 23:44 -29.49085 -62.34233 35881 ft 395 kts 309°
2026-05-04 23:44 -29.45084 -62.38569 35887 ft 396 kts 309°
2026-05-04 23:45 -29.41071 -62.42900 35896 ft 396 kts 309°
2026-05-04 23:45 -29.37060 -62.47235 35897 ft 396 kts 309°
2026-05-04 23:46 -29.33052 -62.51572 35899 ft 396 kts 309°
2026-05-04 23:46 -29.29060 -62.55885 35880 ft 396 kts 309°
2026-05-04 23:47 -29.25040 -62.60208 35886 ft 397 kts 309°
2026-05-04 23:47 -29.21020 -62.64540 35891 ft 397 kts 309°
2026-05-04 23:48 -29.16996 -62.68864 35890 ft 397 kts 309°
2026-05-04 23:48 -29.12966 -62.73182 35892 ft 397 kts 309°
2026-05-04 23:49 -29.08934 -62.77499 35875 ft 397 kts 309°
2026-05-04 23:49 -29.04909 -62.81824 35882 ft 397 kts 309°
2026-05-04 23:50 -29.00874 -62.86147 35895 ft 397 kts 309°
2026-05-04 23:50 -28.96839 -62.90455 35898 ft 397 kts 309°
2026-05-04 23:51 -28.92804 -62.94760 35896 ft 397 kts 309°
2026-05-04 23:51 -28.88778 -62.99061 35885 ft 397 kts 309°
2026-05-04 23:52 -28.84736 -63.03360 35886 ft 397 kts 309°
2026-05-04 23:52 -28.80699 -63.07653 35890 ft 397 kts 309°
2026-05-04 23:53 -28.76691 -63.11914 35897 ft 397 kts 309°
2026-05-04 23:53 -28.72646 -63.16220 35894 ft 397 kts 309°
2026-05-04 23:54 -28.68608 -63.20497 35885 ft 397 kts 309°
2026-05-04 23:54 -28.64559 -63.24773 35887 ft 396 kts 309°
2026-05-04 23:55 -28.60522 -63.29044 35886 ft 396 kts 309°
2026-05-04 23:56 -28.54490 -63.35418 35888 ft 396 kts 309°
2026-05-04 23:56 -28.50453 -63.39683 35886 ft 396 kts 309°
2026-05-04 23:57 -28.47087 -63.43224 35887 ft 396 kts 309°
2026-05-04 23:57 -28.43045 -63.47475 35885 ft 396 kts 309°
2026-05-04 23:58 -28.38988 -63.51751 35869 ft 403 kts 310°
2026-05-04 23:58 -28.34838 -63.56123 35863 ft 409 kts 310°
2026-05-04 23:59 -28.30646 -63.60518 35867 ft 410 kts 310°
2026-05-04 23:59 -28.26452 -63.64905 35849 ft 410 kts 310°
2026-05-05 00:00 -28.22250 -63.69307 35865 ft 410 kts 310°
2026-05-05 00:00 -28.18038 -63.73713 35041 ft 416 kts 310°
2026-05-05 00:00 -28.15932 -63.75919 34332 ft 419 kts 311°
2026-05-05 00:01 -28.13781 -63.78168 33596 ft 422 kts 311°
2026-05-05 00:01 -28.11631 -63.80409 33150 ft 417 kts 311°
2026-05-05 00:01 -28.09506 -63.82616 32655 ft 413 kts 311°
2026-05-05 00:01 -28.07396 -63.84809 32112 ft 411 kts 311°
2026-05-05 00:02 -28.05298 -63.86996 31591 ft 408 kts 311°
2026-05-05 00:02 -28.03220 -63.89170 31051 ft 406 kts 311°
2026-05-05 00:02 -28.01157 -63.91332 30536 ft 403 kts 311°
2026-05-05 00:02 -27.99109 -63.93483 30020 ft 401 kts 312°
2026-05-05 00:03 -27.97066 -63.95626 29442 ft 399 kts 312°
2026-05-05 00:03 -27.95045 -63.97740 28931 ft 395 kts 312°
2026-05-05 00:03 -27.93060 -63.99812 28409 ft 391 kts 312°
2026-05-05 00:03 -27.91067 -64.01889 27926 ft 388 kts 312°
2026-05-05 00:04 -27.89093 -64.03950 27440 ft 385 kts 312°
2026-05-05 00:04 -27.87130 -64.06003 26962 ft 382 kts 313°
2026-05-05 00:04 -27.85184 -64.08033 26495 ft 380 kts 313°
2026-05-05 00:04 -27.83246 -64.10049 26043 ft 378 kts 313°
2026-05-05 00:05 -27.81313 -64.12058 25587 ft 376 kts 313°
2026-05-05 00:05 -27.79396 -64.14052 25178 ft 374 kts 313°
2026-05-05 00:05 -27.77491 -64.16036 24743 ft 372 kts 313°
2026-05-05 00:05 -27.75594 -64.18011 24321 ft 370 kts 313°
2026-05-05 00:06 -27.73706 -64.19974 23901 ft 368 kts 313°
2026-05-05 00:06 -27.71850 -64.21902 23475 ft 367 kts 313°
2026-05-05 00:06 -27.69975 -64.23848 22985 ft 365 kts 313°
2026-05-05 00:06 -27.68112 -64.25779 22540 ft 362 kts 313°
2026-05-05 00:07 -27.66267 -64.27691 22100 ft 359 kts 313°
2026-05-05 00:07 -27.64430 -64.29594 21652 ft 356 kts 313°
2026-05-05 00:07 -27.62605 -64.31482 21196 ft 354 kts 313°
2026-05-05 00:07 -27.60794 -64.33358 20737 ft 353 kts 313°
2026-05-05 00:08 -27.58990 -64.35228 20270 ft 351 kts 313°
2026-05-05 00:08 -27.57194 -64.37088 19813 ft 350 kts 313°
2026-05-05 00:08 -27.55400 -64.38944 19350 ft 350 kts 313°
2026-05-05 00:08 -27.53608 -64.40792 18890 ft 349 kts 314°
2026-05-05 00:09 -27.51817 -64.42640 18429 ft 348 kts 314°
2026-05-05 00:09 -27.50031 -64.44489 17939 ft 348 kts 314°
2026-05-05 00:09 -27.48276 -64.46302 17469 ft 346 kts 314°
2026-05-05 00:09 -27.46506 -64.48129 17008 ft 344 kts 314°
2026-05-05 00:10 -27.44746 -64.49943 16549 ft 342 kts 314°
2026-05-05 00:10 -27.42970 -64.51772 16092 ft 341 kts 314°
2026-05-05 00:10 -27.41245 -64.53546 15644 ft 340 kts 314°
2026-05-05 00:10 -27.39501 -64.55341 15187 ft 339 kts 314°
2026-05-05 00:11 -27.37759 -64.57134 14734 ft 339 kts 314°
2026-05-05 00:11 -27.36017 -64.58925 14270 ft 339 kts 314°
2026-05-05 00:11 -27.34320 -64.60759 13817 ft 337 kts 308°
2026-05-05 00:11 -27.32834 -64.62793 13380 ft 335 kts 307°
2026-05-05 00:12 -27.31361 -64.64821 12955 ft 334 kts 307°
2026-05-05 00:12 -27.29898 -64.66833 12543 ft 332 kts 307°
2026-05-05 00:12 -27.28439 -64.68838 12138 ft 330 kts 308°
2026-05-05 00:12 -27.26982 -64.70835 11725 ft 329 kts 308°
2026-05-05 00:13 -27.25531 -64.72823 11316 ft 328 kts 308°
2026-05-05 00:13 -27.24088 -64.74802 10910 ft 327 kts 309°
2026-05-05 00:13 -27.22631 -64.76798 10293 ft 334 kts 309°
2026-05-05 00:13 -27.21176 -64.78793 10125 ft 325 kts 310°
2026-05-05 00:14 -27.19769 -64.80721 10010 ft 314 kts 310°
2026-05-05 00:14 -27.18401 -64.82590 9816 ft 307 kts 310°
2026-05-05 00:14 -27.17066 -64.84411 9510 ft 304 kts 310°
2026-05-05 00:14 -27.15727 -64.86241 9181 ft 302 kts 310°
2026-05-05 00:15 -27.14399 -64.88059 8849 ft 300 kts 309°
2026-05-05 00:15 -27.13080 -64.89866 8533 ft 298 kts 309°
2026-05-05 00:15 -27.11769 -64.91655 8228 ft 296 kts 309°
2026-05-05 00:15 -27.10468 -64.93432 7925 ft 293 kts 309°
2026-05-05 00:16 -27.09179 -64.95189 7598 ft 289 kts 309°
2026-05-05 00:16 -27.07910 -64.96916 7057 ft 285 kts 309°
2026-05-05 00:16 -27.06658 -64.98620 6635 ft 278 kts 309°
2026-05-05 00:16 -27.05474 -65.00231 6517 ft 258 kts 309°
2026-05-05 00:17 -27.04361 -65.01754 6243 ft 248 kts 307°
2026-05-05 00:17 -27.03543 -65.03423 5829 ft 243 kts 290°
2026-05-05 00:17 -27.03170 -65.05275 5283 ft 244 kts 281°
2026-05-05 00:17 -27.02889 -65.07155 4809 ft 242 kts 282°
2026-05-05 00:18 -27.02610 -65.08974 4613 ft 228 kts 283°
2026-05-05 00:18 -27.02356 -65.10652 4566 ft 210 kts 283°
2026-05-05 00:18 -27.02068 -65.12186 4476 ft 192 kts 296°
2026-05-05 00:18 -27.01287 -65.13238 4388 ft 171 kts 332°
2026-05-05 00:19 -27.00125 -65.13561 4197 ft 172 kts
2026-05-05 00:19 -26.98964 -65.13340 4005 ft 171 kts 11°
2026-05-05 00:19 -26.97778 -65.13110 3799 ft 171 kts 11°
2026-05-05 00:19 -26.96622 -65.12888 3613 ft 171 kts 11°
2026-05-05 00:20 -26.95453 -65.12663 3424 ft 170 kts 11°
2026-05-05 00:20 -26.94289 -65.12439 3223 ft 170 kts 11°
2026-05-05 00:20 -26.93163 -65.12224 3044 ft 153 kts 12°
2026-05-05 00:20 -26.92130 -65.12028 2816 ft 148 kts 10°
2026-05-05 00:21 -26.91126 -65.11836 2616 ft 145 kts 10°
2026-05-05 00:21 -26.90136 -65.11646 2427 ft 144 kts 10°
2026-05-05 00:21 -26.89144 -65.11467 2208 ft 145 kts 10°
2026-05-05 00:21 -26.88145 -65.11282 2035 ft 146 kts 11°
2026-05-05 00:22 -26.87144 -65.11083 1812 ft 146 kts 11°
2026-05-05 00:22 -26.86143 -65.10886 1638 ft 146 kts 11°
2026-05-05 00:22 -26.85143 -65.10690 1502 ft 141 kts 11°
2026-05-05 00:22 -26.84312 -65.10528 1479 ft 97 kts 10°
2026-05-05 00:23 -26.83819 -65.10432 1494 ft 49 kts
2026-05-05 00:23 -26.83550 -65.10379 1487 ft 24 kts
2026-05-05 00:23 -26.83413 -65.10419 1490 ft 16 kts 346°
2026-05-05 00:23 -26.83326 -65.10477 1489 ft 13 kts 294°
2026-05-05 00:24 -26.83351 -65.10568 1488 ft 13 kts 225°
2026-05-05 00:24 -26.83424 -65.10635 1492 ft 14 kts 221°
2026-05-05 00:24 -26.83500 -65.10688 1490 ft 10 kts 192°
2026-05-05 00:24 -26.83578 -65.10704 1486 ft 11 kts 189°
2026-05-05 00:25 -26.83610 -65.10728 1488 ft 5 kts 255°
2026-05-05 00:25 -26.83607 -65.10760 1486 ft 0 kts 281°
2026-05-05 00:25 -26.83606 -65.10765 1492 ft 0 kts 281°